User: anonymous   Login
Location: Aula-Vintri
(58.3875°N, 22.4322°E)
Time: 15:45:49
(UTC+00:00)
Language:

Cosmos 2173 Rocket - Orbit

View from above orbital plane
View from above orbital plane
View from above satellite
View from above satellite

Ground track
Ground track

The orbit data is extracted from the following two-line orbital elements,

1 21797U 91081B   19341.86530162 -.00000020 +00000-0 -35309-4 0  9992
2 21797 082.9529 111.0556 0039110 077.1202 031.9442 13.77459585408532
Epoch (UTC): 07 December 2019 20:46:02
Eccentricity: 0.0039110
inclination: 82.9529°
perigee height: 944 km
apogee height: 1001 km
right ascension of ascending node: 111.0556°
argument of perigee: 77.1202°
revolutions per day: 13.77459585
mean anomaly at epoch: 31.9442°
orbit number at epoch: 40853

The dashed part of the orbit path shows where the satellite is in the earth's shadow,  

DLR